Regional Weather Roundup
Issued by NWS Portland, ME

Current Version | Previous Version | Text Only | Print | Product List | Glossary Off
Versions: 1 2 3 4 5 6 7 8 9 10 11 12 13 14 15 16 17 18 19 20 21 22 23 24 25 26 27 28 29 30 31 32 33 34 35 36 37 38 39 40 41 42 43 44 45 46 47 48 49 50
000 ASUS41 KGYX 180110 RWRGYX WEATHER ROUNDUP FOR MAINE AND NEW HAMPSHIRE NATIONAL WEATHER SERVICE GRAY ME 900 PM EDT FRI AUG 17 2018 MEZ002-005-006-010-012-015-018-020-021-024-026-027-029-180200- MAINE CITY SKY/WX TMP DP RH WIND PRES REMARKS PORTLAND MOCLDY 70 69 97 CALM 29.95S SANFORD LGT RAIN 68 68 100 CALM 29.94F VSB 1/2 BAR HARBOR FAIR 65 62 90 SE3 29.99F WISCASSET MOCLDY 70 68 93 SW3 29.98R ROCKLAND CLOUDY 66 64 93 S3 29.98S FRYEBURG CLOUDY 70 64 81 CALM 29.95S LEWISTONAUBURN CLOUDY 69 67 93 SE5 29.96S AUGUSTA CLOUDY 69 65 86 S8 29.97S WATERVILLE CLOUDY 67 62 84 CALM 29.94S BANGOR CLOUDY 67 61 81 S7 29.97S GREENVILLE N/A 62 62 100 SE5 29.95S MILLINOCKET LGT RAIN 66 63 90 S5 29.96F HOULTON LGT RAIN 67 62 84 S6 29.95R PRESQUE ISLE CLOUDY 68 60 75 CALM 29.95R FRENCHVILLE LGT RAIN 68 57 68 SE6 29.95R CARIBOU LGT RAIN 69 59 70 S3 29.94R $$ NHZ002-005-008-009-011-012-014-180200- NEW HAMPSHIRE CITY SKY/WX TMP DP RH WIND PRES REMARKS PORTSMOUTH CLOUDY 70 68 95 E5 29.92S ROCHESTER CLOUDY 69 69 100 CALM 29.94S MANCHESTER NOT AVBL CONCORD LGT RAIN 72 70 93 CALM 29.94S FOG LACONIA HVY RAIN 72 70 94 S7 29.96R FOG PLYMOUTH TSTM 71 67 87 E3 29.93S BERLIN CLOUDY 70 65 84 SE5 29.93S WHITEFIELD CLOUDY 71 68 90 W3 29.92R JAFFREY NOT AVBL LEBANON LGT RAIN 73 70 90 CALM 29.89F FOG MT WASHINGTON FOG 55 55 100 SW32G52 N/A VSB 0 $$ VTZ005-007-008-180200- VERMONT CITY SKY/WX TMP DP RH WIND PRES REMARKS ST JOHNSBURY N/A 70 69 97 MISG 29.88S MONTPELIER TSTM 70 70 100 E3 29.93F FOG BURLINGTON TSTM 76 71 85 S6 29.84S $$ MAZ007-012-024-CTZ003-RIZ002-NYZ038-NYZ072-180200- SOUTHERN NEW ENGLAND AND NY CITY SKY/WX TMP DP RH WIND PRES REMARKS BOSTON CLOUDY 78 72 81 S10 29.94S WORCESTER CLOUDY 75 71 87 SW16G24 29.99R NANTUCKET FAIR 72 72 100 S9 30.01R FOG PROVIDENCE CLOUDY 78 74 87 SW9 29.98R HARTFORD CLOUDY 78 73 84 S9 29.94R ALBANY CLOUDY 75 71 87 CALM 29.89R THUNDER NEW YORK CITY CLOUDY 85 74 69 S12G20 29.92S HX 92 $$ ANZ081-ANZ082-ANZ150-NHZ014-MEZ023>029-180200- COASTAL MARINE OBSERVATIONS STATION/POSITION TIME TEMP WIND PRES WAVE AIR SEA DIR/SP/G HT/PER (UTC) (F) (DEG/KT/KT) (MB) (FT/S) MOUNT DESERT ROC 0100 63 130/ 15/ 15 1015.5F MATINICUS ROCK 0000 63 140/ 16/ 16 1014.7F ISLE OF SHOALS 0000 71 130/ 9/ 10 1012.9F JEFFREYS LEDGE 0036 70 N/A 2/ 3 CASHES LEDGE BUO 0050 70 70 1014.5F 2/ 7 $$ .............KEY.............. WCI - WIND CHILL TC - TEMPERATURE IN CELSIUS VSB - VISIBILITY IN MILES HX - HEAT INDEX FAIR- INDICATES FEW OR NO CLOUDS BELOW 12,000 FT, WITH NO SIGNIFICANT WEATHER AND/OR OBSTRUCTIONS TO VISIBILITY.

USA.gov is the U.S. government's official web portal to all federal, state and local government web resources and services.